Starlink 3691

operational
NORAD ID: 51960 Int'l Des: 2022-025 Owner: SPXS Country: US Constellation: starlink
LEOCIRCULARSTARLINK_TYPE

Über Starlink 3691

Beschreibung wird geladen...

Live-Position

3D-Globus wird geladen...

Nächste Überflüge

Höhenverlauf

Altitude vs Time

uPlot chart will show altitude changes over time

Zweizeiliger Elementsatz

1 51960U 22025E 26034.43112001 .00000191 00000-0 31686-4 0 9998
2 51960 53.0547 189.6398 0001359 90.9682 269.1463 15.06399267215684
Epoch: 3. Feb. 2026 • Age: 17 hours

Aktueller Status

Höhe 566.5 km
Geschwindigkeit 7.58 km/s
Subsatellitenpunkt -52.77°S, 99.58°W
Startdatum 9. März 2022
Alter 3.9 years
Typ internet

Technische Details

Klassifizierung Payload
Masse 297.00 kg
Trockenmasse 275.00 kg
Gesamtmasse 297.00 kg
Länge 0.20 m
Durchmesser 2.80 m
Spannweite 9.00 m
Form Box + pan
Hersteller SPXS
Bus-Typ Starlink
Phasenstatus In Orbit
Besitzer/Staat SPXS/US

Große Konstellationen

Loading constellations...